Home   Weather   Landau in der Pfalz   Past weeks
Flag for Germany

Past Weather in Landau in der Pfalz, Rhineland-Palatinate, Germany — Yesterday and Last 2 Weeks

Now
72 °F

Sunny.


Feels Like: 77 °F
Forecast: 71 / 46 °F
Wind: 6 mph from East

Location: Mannheim City

Current Time: Sep 21, 2019 at 9:38:41 pm

Latest Report: Sep 21, 2019 at 7:20 pm


Visibility: 10 mi

Pressure: 29.98 "Hg

Humidity: 33%

Dew Point: 41 °F

Location of Landau in der PfalzLocation

Past Weather in Landau in der Pfalz — Graph

°F

Landau in der Pfalz Temperature Yesterday

Maximum temperature yesterday: 68 °F (at 3:20 pm)
Minimum temperature yesterday: 43 °F (at 6:50 am)
Average temperature yesterday: 59 °F

High & Low Weather Summary for the Past Weeks

 TemperatureHumidityPressure
High81 °F (Sep 15, 4:50 pm)100% (Sep 7, 7:50 pm)30.48 "Hg (Sep 7, 7:50 pm)
Low43 °F (Sep 20, 6:50 am)23% (Sep 21, 2:50 pm)29.95 "Hg (Sep 9, 6:20 pm)
Average63 °F62%30.22 "Hg
* Reported Sep 6 7:20 pm — Sep 21 7:20 pm, Landau in der Pfalz. Weather by CustomWeather, © 2019

Note: Actual official high and low records may vary slightly from our data, if they occured in-between our weather recording intervals... More about our weather records

Advertising

Landau in der Pfalz Weather History for the Previous 24 Hours

Scroll right to see more
 ConditionsComfort  
Time TempWeatherWind HumidityBarometerVisibility
7:20 pm
Sat, Sep 21
72 °FSunny.6 mph33%29.98 "Hg10 mi
6:50 pm75 °FSunny.6 mph29%29.98 "Hg10 mi
6:20 pm75 °FPassing clouds.7 mph29%30.01 "HgN/A
5:50 pm77 °FPassing clouds.8 mph26%30.01 "HgN/A
5:20 pm77 °FPassing clouds.7 mph26%30.01 "HgN/A
4:50 pm75 °FPassing clouds.5 mph27%30.01 "HgN/A
4:20 pm75 °FPassing clouds.6 mph27%30.04 "HgN/A
3:50 pm75 °FPassing clouds.6 mph25%30.04 "HgN/A
3:20 pm75 °FPassing clouds.6 mph24%30.07 "HgN/A
2:50 pm73 °FPassing clouds.7 mph23%30.07 "HgN/A
2:20 pm73 °FSunny.6 mph25%30.09 "Hg10 mi
1:50 pm72 °FPassing clouds.6 mph29%30.09 "HgN/A
1:20 pm70 °FSunny.6 mph31%30.12 "Hg10 mi
12:50 pm68 °FPassing clouds.6 mph33%30.12 "HgN/A
12:20 pm68 °FSunny.3 mph35%30.15 "Hg10 mi
11:50 am66 °FSunny.3 mph37%30.15 "Hg10 mi
11:20 am64 °FSunny.2 mph43%30.15 "Hg10 mi
10:50 am63 °FSunny.2 mph42%30.15 "Hg10 mi
10:20 am61 °FSunny.2 mph45%30.18 "Hg10 mi
9:50 am59 °FSunny.No wind51%30.18 "Hg10 mi
9:20 am55 °FSunny.2 mph59%30.18 "Hg10 mi
8:50 am52 °FSunny.No wind72%30.18 "Hg10 mi
8:20 am48 °FSunny.No wind82%30.18 "Hg10 mi
7:50 am45 °FSunny.No wind81%30.18 "Hg10 mi
7:20 am43 °FSunny.1 mph81%30.18 "Hg10 mi
Weather by CustomWeather, © 2019

See weather overview